Regional Weather Roundup
Issued by NWS

Home | Current Version | Previous Version | Graphics & Text | Print | Product List | Glossary On
Versions: 1 2 3 4 5 6 7 8 9 10 11 12 13 14 15 16 17 18 19 20 21 22 23 24 25 26 27 28 29 30 31 32 33 34 35 36 37 38 39 40 41 42 43 44 45 46 47 48 49 50
000
ASUS43 KDTX 192010
RWRMI
MICHIGAN HOURLY REGIONAL WEATHER ROUNDUP
NATIONAL WEATHER SERVICE DETROIT/PONTIAC MI
400 PM EDT SAT AUG 19 2017

NOTE: "FAIR" INDICATES FEW OR NO CLOUDS BELOW 12,000 FEET WITH NO
SIGNIFICANT WEATHER AND/OR OBSTRUCTION TO VISIBILITY.

MIZ047>049-052>055-059>063-066>070-074>076-081>083-192100-
SOUTHEAST LOWER MICHIGAN

CITY           SKY/WX    TMP DP  RH WIND       PRES   REMARKS
ADRIAN         SUNNY     80  56  43 NW7       29.94F
ALMA           CLOUDY    77  55  46 W10       29.94S
ANN ARBOR      SUNNY     80  56  43 W16       29.93F
BAD AXE        SUNNY     75  56  51 W8G16     29.92R
CARO           MOSUNNY   77  57  50 W7        29.92S
DETROIT CITY   MOSUNNY   78  54  43 NW12      29.92S
DETROIT        MOSUNNY   81  56  42 W12G17    29.93F
FLINT          PTSUNNY   78  59  51 W13       29.94S
GROSSE ILE     SUNNY     80  56  43 NW13      29.91S
HILLSDALE      CLOUDY    79  54  41 W3        29.96S
HOWELL         PTSUNNY   77  56  48 NW7       29.95S

CITY           SKY/WX    TMP DP  RH WIND       PRES   REMARKS
JACKSON        SUNNY     79  54  41 NW6       29.95S
LAMBERTVILLE   SUNNY     80  57  45 NW8       29.92F
LANSING        MOSUNNY   79  56  45 NW9       29.95S
LAPEER         PTSUNNY   76  55  47 W9        29.94S
MASON          PTSUNNY   80  56  43 W9        29.95S
MONROE         SUNNY     80  59  49 W8        29.92S
MT. CLEMENS    MOSUNNY   77  57  50 W9        29.91S
PONTIAC        MOSUNNY   77  55  46 NW10      29.93S
PORT HOPE        N/A     76  57  51 W8        29.88F
PORT HURON     MOSUNNY   75  59  57 NW10      29.92S
TRI CITIES     MOSUNNY   77  61  57 W8        29.92F
MIDLAND        PTSUNNY   78  58  49 W9G17     29.91S
TROY           MOSUNNY   79  53  40 W13G18    29.95S
SAGINAW HB     MOSUNNY   75  55  50 W6G16     29.92S
$$
MIZ043>046-050>051-056>058-064>065-071>073-077>080-192100-
SOUTHWEST LOWER MICHIGAN

CITY           SKY/WX    TMP DP  RH WIND       PRES   REMARKS
BATTLE CREEK   SUNNY     80  55  42 NW8       29.96S
BENTON HARBOR  SUNNY     77  57  50 W8        29.97S
BIG RAPIDS     MOSUNNY   78  55  44 W9        29.93S
COLDWATER      SUNNY     80  49  34 N6        29.95S
FREMONT        FAIR      78  60  53 W7        29.94S
HOLLAND        SUNNY     75  62  64 W8        29.97S
GRAND RAPIDS   MOSUNNY   80  58  46 SW10      29.94S
IONIA          FAIR      79  56  45 W5        29.94S
KALAMAZOO      SUNNY     80  52  37 VRB3      29.95S
LUDINGTON      MOSUNNY   72  64  77 SW9G16    29.93S
MARSHALL       SUNNY     80  54  40 NW5       29.95R
MOUNT PLEASANT MOSUNNY   79  57  47 W9        29.92S
MUSKEGON       MOSUNNY   75  63  66 W10       29.96S
SOUTH HAVEN    SUNNY     76  61  59 W7        29.97S
$$
MIZ016>042-192100-
NORTHERN LOWER MICHIGAN

CITY           SKY/WX    TMP DP  RH WIND       PRES   REMARKS
ALPENA         MOSUNNY   78  60  53 NW7       29.87F
BEAVER ISLAND  MOSUNNY   71  65  79 SW15      29.88S
BELLAIRE       SUNNY     77  57  50 SW5       29.89S
CADILLAC       MOSUNNY   79  56  44 W9G18     29.93S
CHARLEVOIX     SUNNY     73  63  69 W12       29.91F
FRANKFORT      SUNNY     71  66  82 SW9       29.91F
GAYLORD        MOSUNNY   73  55  53 W12       29.90F
GRAYLING       MOSUNNY   76  56  49 W9        29.91S
HARBOR SPRINGS SUNNY     72  62  69 W9        29.88S
HOUGHTON LAKE  PTSUNNY   77  58  51 W9        29.92S
MANISTEE       SUNNY     75  62  64 W10       29.92S
OSCODA         PTSUNNY   74  58  56 SE9       29.88S
PELLSTON       SUNNY     75  60  59 SW10      29.87F
ROGERS CITY    PTSUNNY   71  61  71 N6        29.88R
TRAVERSE CITY  MOSUNNY   80  58  46 W13       29.87F
$$
MIZ007>008-015-192100-
EASTERN UPPER MICHIGAN

CITY           SKY/WX    TMP DP  RH WIND       PRES   REMARKS
KINROSS        MOSUNNY   73  60  63 W10       29.85F
MACKINAC ISLAN SUNNY     69  64  84 SW10      29.87S
NEWBERRY       PTSUNNY   73  63  70 W7        29.84S
S. S. MARIE    SUNNY     75  60  59 W8        29.84S
MUNISING         N/A     72  64  76 NE10      29.85S
$$
MIZ004>006-011>014-085-192100-
CENTRAL UPPER MICHIGAN

CITY           SKY/WX    TMP DP  RH WIND       PRES   REMARKS
MANISTIQUE     PTSUNNY   73  63  70 S12       29.84S
ESCANABA       CLOUDY    77  65  66 S10       29.84F
MENOMINEE      SUNNY     81  60  48 W6        29.87F
SAWYER-GWINN   PTSUNNY   73  63  68 NE9       29.86S
$$
MIZ001>003-009>011-084-192100-
WESTERN UPPER MICHIGAN

CITY           SKY/WX    TMP DP  RH WIND       PRES   REMARKS
IRON MOUNTAIN  PTSUNNY   81  54  39 W10       29.86F
HOUGHTON         N/A    N/A N/A N/A MISG      29.85S
COPPER HARBOR    N/A     66  57  72 N9        29.82S
IRONWOOD       MOSUNNY   76  57  51 W13       29.90S
$$

ABBREVIATIONS USED IN REMARKS
   TC - TEMPERATURE IN CELSIUS
  WCI - WIND CHILL INDEX
   HX - HEAT INDEX
  VSB - VISIBILITY





USA.gov is the U.S. government's official web portal to all federal, state and local government web resources and services.